| time (UTC) | temp C | wind direction | speed KPH | gust KPH | rain 1hr cm | rain 24hr cm | rain mn cm | humidity % | barometer mb |
| 20260902124551 | 16 | 278 | 19.3 | 53.1 | 0.00 | 0.00 | 0.00 | 59 | 1006.7 |
| 20260902123050 | 15 | 200 | 22.5 | 27.4 | 0.00 | 0.00 | 0.00 | 63 | 1006.6 |
| 20260902121548 | 15 | 193 | 16.1 | 25.7 | 0.00 | 0.00 | 0.00 | 63 | 1006.5 |
| 20260902120046 | 16 | 212 | 16.1 | 24.1 | 0.00 | 0.00 | 0.00 | 63 | 1006.3 |
| 20260902114546 | 16 | 202 | 19.3 | 27.4 | 0.00 | 0.00 | 0.00 | 62 | 1006.5 |
| 20260902113050 | 16 | 207 | 25.7 | 33.8 | 0.00 | 0.00 | 0.00 | 62 | 1006.2 |
| 20260902111540 | 16 | 197 | 19.3 | 24.1 | 0.00 | 0.00 | 0.00 | 60 | 1006.1 |
| 20260902110042 | 16 | 246 | 16.1 | 22.5 | 0.00 | 0.00 | 0.00 | 59 | 1005.8 |
| 20260902104541 | 17 | 218 | 9.7 | 14.5 | 0.00 | 0.00 | 0.00 | 57 | 1005.7 |
| 20260902103020 | 18 | 246 | 12.9 | 24.1 | 0.00 | 0.00 | 0.00 | 54 | 1005.4 |
| 20260902101502 | 18 | 282 | 16.1 | 25.7 | 0.00 | 0.00 | 0.00 | 52 | 1005.5 |
| 20260902100002 | 18 | 278 | 4.8 | 20.9 | 0.00 | 0.00 | 0.00 | 54 | 1005.7 |
| 20260902094544 | 17 | 269 | 14.5 | 25.7 | 0.00 | 0.00 | 0.00 | 58 | 1005.5 |
| 20260902093043 | 16 | 269 | 14.5 | 30.6 | 0.00 | 0.00 | 0.00 | 61 | 1005.5 |
| 20260902091524 | 16 | 269 | 24.1 | 32.2 | 0.00 | 0.00 | 0.00 | 62 | 1005.5 |
| 20260902090023 | 17 | 271 | 24.1 | 32.2 | 0.00 | 0.00 | 0.00 | 63 | 1005.5 |
| 20260902084503 | 17 | 260 | 19.3 | 22.5 | 0.00 | 0.00 | 0.00 | 61 | 1005.6 |
| 20260902083005 | 18 | 293 | 4.8 | 9.7 | 0.00 | 0.00 | 0.00 | 58 | 1005.4 |
| 20260902081607 | 18 | 355 | 0.0 | 4.8 | 0.00 | 0.00 | 0.00 | 57 | 1005.0 |
| 20260902080055 | 19 | 336 | 6.4 | 20.9 | 0.00 | 0.00 | 0.00 | 56 | 1005.0 |
| 20260902074527 | 20 | 333 | 4.8 | 16.1 | 0.00 | 0.00 | 0.00 | 52 | 1005.0 |
| 20260902073025 | 19 | 254 | 6.4 | 20.9 | 0.00 | 0.00 | 0.00 | 57 | 1005.0 |
| 20260902071507 | 20 | 193 | 19.3 | 30.6 | 0.00 | 0.00 | 0.00 | 55 | 1005.0 |
| 20260902070007 | 20 | 276 | 12.9 | 20.9 | 0.00 | 0.00 | 0.00 | 55 | 1005.0 |
| 20260902064550 | 20 | 215 | 27.4 | 41.8 | 0.00 | 0.00 | 0.00 | 54 | 1004.7 |
| 20260902063111 | 20 | 210 | 30.6 | 43.5 | 0.00 | 0.00 | 0.00 | 53 | 1004.5 |
| 20260902061531 | 20 | 271 | 27.4 | 40.2 | 0.00 | 0.00 | 0.00 | 51 | 1004.4 |
| 20260902060033 | 21 | 240 | 24.1 | 30.6 | 0.00 | 0.00 | 0.00 | 50 | 1004.1 |
| 20260902054512 | 21 | 259 | 20.9 | 25.7 | 0.00 | 0.00 | 0.00 | 48 | 1004.0 |
| 20260902053014 | 22 | 247 | 16.1 | 20.9 | 0.00 | 0.00 | 0.00 | 45 | 1004.1 |
| 20260902051603 | 23 | 212 | 8.0 | 17.7 | 0.00 | 0.00 | 0.00 | 42 | 1004.0 |
| 20260902050055 | 23 | 55 | 4.8 | 12.9 | 0.00 | 0.00 | 0.00 | 43 | 1003.7 |
| 20260902044545 | 23 | 288 | 6.4 | 16.1 | 0.00 | 0.00 | 0.00 | 42 | 1003.3 |
| 20260902043046 | 21 | 308 | 6.4 | 14.5 | 0.00 | 0.00 | 0.00 | 49 | 1003.3 |
| 20260902041542 | 22 | 276 | 9.7 | 14.5 | 0.00 | 0.00 | 0.00 | 49 | 1003.3 |
| 20260902040041 | 23 | 333 | 3.2 | 11.3 | 0.00 | 0.00 | 0.00 | 47 | 1003.1 |
| 20260902034540 | 23 | 68 | 3.2 | 4.8 | 0.00 | 0.00 | 0.00 | 47 | 1003.0 |
| 20260902033039 | 23 | 345 | 3.2 | 9.7 | 0.00 | 0.00 | 0.00 | 46 | 1002.7 |
| 20260902031542 | 24 | 332 | 1.6 | 3.2 | 0.00 | 0.00 | 0.00 | 46 | 1002.5 |
| 20260902030038 | 24 | 98 | 0.0 | 3.2 | 0.00 | 0.00 | 0.00 | 45 | 1002.3 |
| 20260902024538 | 24 | 305 | 0.0 | 1.6 | 0.00 | 0.00 | 0.00 | 45 | 1002.5 |
| 20260902023019 | 25 | 290 | 1.6 | 4.8 | 0.00 | 0.00 | 0.00 | 43 | 1002.4 |
| 20260902021530 | 25 | 150 | 1.6 | 12.9 | 0.00 | 0.00 | 0.00 | 42 | 1002.4 |
| 20260902020131 | 25 | 132 | 9.7 | 12.9 | 0.00 | 0.00 | 0.00 | 42 | 1002.2 |
| 20260902014603 | 26 | 110 | 12.9 | 19.3 | 0.00 | 0.00 | 0.00 | 41 | 1002.3 |
| 20260902013040 | 26 | 96 | 12.9 | 20.9 | 0.00 | 0.00 | 0.00 | 40 | 1002.4 |
| 20260902011542 | 26 | 120 | 14.5 | 19.3 | 0.00 | 0.00 | 0.00 | 39 | 1002.4 |
| 20260902010027 | 27 | 142 | 9.7 | 17.7 | 0.00 | 0.00 | 0.00 | 39 | 1002.3 |
| 20260902004524 | 27 | 110 | 14.5 | 19.3 | 0.00 | 0.00 | 0.00 | 38 | 1002.4 |
| 20260902003005 | 28 | 114 | 12.9 | 17.7 | 0.00 | 0.00 | 0.00 | 36 | 1002.4 |
| 20260902001502 | 28 | 151 | 12.9 | 19.3 | 0.00 | 0.00 | 0.00 | 32 | 1002.4 |
| 20260902000046 | 28 | 145 | 12.9 | 16.1 | 0.00 | 0.00 | 0.00 | 33 | 1002.4 |
| 20260901234601 | 29 | 175 | 9.7 | 14.5 | 0.00 | 0.00 | 0.00 | 32 | 1002.6 |
| 20260901233024 | 29 | 143 | 8.0 | 16.1 | 0.00 | 0.00 | 0.00 | 30 | 1002.7 |
| 20260901231521 | 28 | 132 | 3.2 | 17.7 | 0.00 | 0.00 | 0.00 | 31 | 1002.6 |
| 20260901230008 | 28 | 191 | 9.7 | 22.5 | 0.00 | 0.00 | 0.00 | 31 | 1002.9 |
| 20260901224600 | 28 | 195 | 20.9 | 29.0 | 0.00 | 0.00 | 0.00 | 32 | 1002.9 |
| 20260901223041 | 28 | 221 | 25.7 | 30.6 | 0.00 | 0.00 | 0.00 | 33 | 1003.0 |
| 20260901221602 | 27 | 215 | 20.9 | 29.0 | 0.00 | 0.00 | 0.00 | 35 | 1003.3 |
| 20260901220017 | 27 | 194 | 14.5 | 22.5 | 0.00 | 0.00 | 0.00 | 34 | 1003.4 |
| 20260901214518 | 27 | 181 | 11.3 | 20.9 | 0.00 | 0.00 | 0.00 | 35 | 1003.5 |
| 20260901213003 | 27 | 221 | 14.5 | 25.7 | 0.00 | 0.00 | 0.00 | 33 | 1003.8 |
| 20260901211601 | 27 | 197 | 12.9 | 22.5 | 0.00 | 0.00 | 0.00 | 35 | 1003.9 |
| 20260901210056 | 26 | 198 | 11.3 | 22.5 | 0.00 | 0.00 | 0.00 | 35 | 1004.3 |
| 20260901204557 | 26 | 202 | 11.3 | 20.9 | 0.00 | 0.00 | 0.00 | 34 | 1004.5 |
| 20260901203101 | 26 | 204 | 4.8 | 16.1 | 0.00 | 0.00 | 0.00 | 37 | 1004.7 |
| 20260901201550 | 26 | 201 | 14.5 | 22.5 | 0.00 | 0.00 | 0.00 | 37 | 1005.0 |
| 20260901200044 | 25 | 204 | 11.3 | 19.3 | 0.00 | 0.00 | 0.00 | 40 | 1005.0 |
| 20260901194543 | 24 | 207 | 12.9 | 19.3 | 0.00 | 0.00 | 0.00 | 39 | 1005.2 |
| 20260901193024 | 24 | 155 | 4.8 | 11.3 | 0.00 | 0.00 | 0.00 | 41 | 1005.2 |
| 20260901191524 | 24 | 141 | 6.4 | 17.7 | 0.00 | 0.00 | 0.00 | 41 | 1005.2 |
| 20260901190057 | 23 | 207 | 12.9 | 17.7 | 0.00 | 0.00 | 0.00 | 41 | 1005.6 |
| 20260901184602 | 23 | 179 | 6.4 | 14.5 | 0.00 | 0.00 | 0.00 | 44 | 1005.7 |
| 20260901183040 | 23 | 195 | 9.7 | 16.1 | 0.00 | 0.00 | 0.00 | 44 | 1005.7 |
| 20260901181541 | 23 | 139 | 8.0 | 12.9 | 0.00 | 0.00 | 0.00 | 43 | 1005.7 |
| 20260901180035 | 22 | 193 | 3.2 | 8.0 | 0.00 | 0.00 | 0.00 | 47 | 1005.9 |
| 20260901174533 | 22 | 156 | 4.8 | 8.0 | 0.00 | 0.00 | 0.00 | 48 | 1006.0 |
| 20260901173030 | 21 | 134 | 3.2 | 9.7 | 0.00 | 0.00 | 0.00 | 48 | 1006.1 |
| 20260901171529 | 21 | 152 | 3.2 | 4.8 | 0.00 | 0.00 | 0.00 | 47 | 1005.9 |
| 20260901170028 | 21 | 128 | 1.6 | 8.0 | 0.00 | 0.00 | 0.00 | 48 | 1005.8 |
| 20260901164526 | 20 | 124 | 3.2 | 8.0 | 0.00 | 0.00 | 0.00 | 49 | 1005.9 |
| 20260901163005 | 20 | 141 | 3.2 | 8.0 | 0.00 | 0.00 | 0.00 | 52 | 1006.1 |
| 20260901161511 | 20 | 172 | 3.2 | 9.7 | 0.00 | 0.00 | 0.00 | 52 | 1006.0 |
| 20260901160052 | 19 | 105 | 3.2 | 6.4 | 0.00 | 0.00 | 0.00 | 51 | 1005.7 |
| 20260901154538 | 18 | 96 | 3.2 | 4.8 | 0.00 | 0.00 | 0.00 | 55 | 1005.6 |
| 20260901153021 | 18 | 120 | 0.0 | 3.2 | 0.00 | 0.00 | 0.00 | 56 | 1005.7 |
| 20260901151519 | 18 | 127 | 0.0 | 1.6 | 0.00 | 0.00 | 0.00 | 57 | 1005.8 |
| 20260901150104 | 17 | 79 | 0.0 | 0.0 | 0.00 | 0.00 | 0.00 | 60 | 1005.8 |
| 20260901144557 | 17 | 79 | 0.0 | 3.2 | 0.00 | 0.00 | 0.00 | 61 | 1005.7 |
| 20260901143037 | 16 | 89 | 4.8 | 6.4 | 0.00 | 0.00 | 0.00 | 62 | 1005.3 |
| 20260901141538 | 17 | 148 | 1.6 | 3.2 | 0.00 | 0.00 | 0.00 | 57 | 1005.1 |
| 20260901140017 | 17 | 61 | 0.0 | 3.2 | 0.00 | 0.00 | 0.00 | 55 | 1005.2 |
| 20260901134528 | 17 | 284 | 4.8 | 9.7 | 0.00 | 0.00 | 0.00 | 54 | 1005.1 |
| 20260901133056 | 17 | 188 | 1.6 | 8.0 | 0.00 | 0.00 | 0.00 | 53 | 1005.1 |
| 20260901131553 | 16 | 177 | 4.8 | 12.9 | 0.00 | 0.00 | 0.00 | 56 | 1004.9 |
| 20260901130035 | 17 | 6 | 1.6 | 6.4 | 0.00 | 0.00 | 0.00 | 60 | 1005.1 |